When you browse on this site, cookies collect data to enhance your experience and personalize the content and advertising you see.
Visit our Privacy Policy to learn more. By continuing to use the site, you agree to this use of cookies and data.
  • în România
  • Lista ţărilor
  • Pe 7 zile
  • Temperatura apei
  • Hartă satelitară
  • Meteo pe hartă
  • Widget-uri
  • user-avatar
    Intrare

    Meteo pe oră la Philadelphia

    Astăzi, 20 Februarie, Miercuri

    Timp Temperatura Precipitaţii Vânt Presiune Umiditate
    00:00 +1°C° 0 mm 1 m/s 776 mmHg 36%
    01:00 +1°C° 0 mm 1 m/s 776 mmHg 37%
    02:00 +1°C° 0 mm 1 m/s 776 mmHg 37%
    03:00 +1°C° 0 mm 1 m/s 776 mmHg 37%
    04:00 0°C° 0 mm 1 m/s 776 mmHg 37%
    05:00 0°C° 0 mm 1 m/s 775 mmHg 36%
    06:00 -2°C° 0 mm 2 m/s 775 mmHg 36%
    07:00 -2°C° 0 mm 2 m/s 775 mmHg 35%
    08:00 -1°C° 0 mm 2 m/s 775 mmHg 36%
    09:00 -1°C° 0 mm 2 m/s 775 mmHg 37%
    10:00 -1°C° 0 mm 2 m/s 776 mmHg 38%
    11:00 -1°C° 0.6 mm 2 m/s 775 mmHg 54%
    12:00 -2°C° 0.6 mm 2 m/s 774 mmHg 70%
    13:00 -2°C° 0.6 mm 2 m/s 773 mmHg 86%
    14:00 -2°C° 0.8 mm 2 m/s 773 mmHg 89%
    15:00 -1°C° 0.8 mm 2 m/s 772 mmHg 91%
    16:00 -1°C° 0.8 mm 3 m/s 771 mmHg 93%
    17:00 -1°C° 1.3 mm 3 m/s 770 mmHg 95%
    18:00 0°C° 1.3 mm 3 m/s 768 mmHg 96%
    19:00 -1°C° 1.3 mm 4 m/s 767 mmHg 98%
    20:00 +1°C° 1.9 mm 3 m/s 766 mmHg 98%
    21:00 +1°C° 1.9 mm 3 m/s 765 mmHg 99%
    22:00 +3°C° 1.9 mm 2 m/s 764 mmHg 99%
    23:00 +3°C° 4.1 mm 2 m/s 763 mmHg 99%

    Mâine, 21 Februarie, Joi

    Timp Temperatura Precipitaţii Vânt Presiune Umiditate
    00:00 +4°C° 4.1 mm 1 m/s 762 mmHg 99%
    01:00 +4°C° 4.1 mm 1 m/s 761 mmHg 99%
    02:00 +4°C° 0.2 mm 1 m/s 760 mmHg 99%
    03:00 +3°C° 0.2 mm 2 m/s 759 mmHg 99%
    04:00 +4°C° 0.2 mm 2 m/s 759 mmHg 99%
    05:00 +3°C° 0 mm 3 m/s 759 mmHg 99%
    06:00 +4°C° 0 mm 3 m/s 759 mmHg 99%
    07:00 +4°C° 0 mm 4 m/s 759 mmHg 98%
    08:00 +5°C° 0 mm 4 m/s 759 mmHg 96%
    09:00 +6°C° 0 mm 4 m/s 760 mmHg 93%
    10:00 +6°C° 0 mm 4 m/s 760 mmHg 90%
    11:00 +7°C° 0 mm 5 m/s 760 mmHg 78%
    12:00 +8°C° 0 mm 5 m/s 760 mmHg 67%
    13:00 +9°C° 0 mm 6 m/s 760 mmHg 56%
    14:00 +9°C° 0 mm 5 m/s 761 mmHg 55%
    15:00 +9°C° 0 mm 5 m/s 761 mmHg 54%
    16:00 +9°C° 0 mm 5 m/s 761 mmHg 53%
    17:00 +7°C° 0 mm 5 m/s 762 mmHg 56%
    18:00 +6°C° 0 mm 4 m/s 763 mmHg 59%
    19:00 +5°C° 0 mm 4 m/s 764 mmHg 63%
    20:00 +5°C° 0 mm 4 m/s 764 mmHg 64%
    21:00 +5°C° 0 mm 4 m/s 765 mmHg 65%
    22:00 +4°C° 0 mm 4 m/s 766 mmHg 66%
    23:00 +4°C° 0 mm 4 m/s 766 mmHg 66%

    Poimâine, 22 Februarie, Vineri

    Timp Temperatura Precipitaţii Vânt Presiune Umiditate
    00:00 +3°C° 0 mm 4 m/s 767 mmHg 66%
    01:00 +3°C° 0 mm 3 m/s 768 mmHg 66%
    02:00 +2°C° 0 mm 3 m/s 768 mmHg 66%
    03:00 +2°C° 0 mm 3 m/s 768 mmHg 66%
    04:00 +2°C° 0 mm 3 m/s 768 mmHg 67%
    05:00 +2°C° 0 mm 2 m/s 768 mmHg 68%
    06:00 +2°C° 0 mm 2 m/s 769 mmHg 69%
    07:00 +2°C° 0 mm 2 m/s 769 mmHg 70%
    08:00 +2°C° 0 mm 2 m/s 770 mmHg 66%
    09:00 +3°C° 0 mm 2 m/s 770 mmHg 62%
    10:00 +4°C° 0 mm 2 m/s 771 mmHg 58%
    11:00 +5°C° 0 mm 2 m/s 771 mmHg 54%
    12:00 +6°C° 0 mm 2 m/s 771 mmHg 50%
    13:00 +8°C° 0 mm 2 m/s 771 mmHg 46%
    14:00 +8°C° 0 mm 2 m/s 771 mmHg 47%
    15:00 +8°C° 0 mm 2 m/s 771 mmHg 49%
    16:00 +8°C° 0 mm 2 m/s 771 mmHg 50%
    17:00 +7°C° 0 mm 2 m/s 771 mmHg 54%
    18:00 +7°C° 0 mm 1 m/s 772 mmHg 58%
    19:00 +7°C° 0 mm 1 m/s 772 mmHg 62%
    20:00 +6°C° 0 mm 1 m/s 773 mmHg 64%
    21:00 +6°C° 0 mm 1 m/s 773 mmHg 66%
    22:00 +6°C° 0 mm 1 m/s 773 mmHg 68%
    23:00 +5°C° 0 mm 1 m/s 773 mmHg 68%

    23 Februarie, Sâmbătă

    Timp Temperatura Precipitaţii Vânt Presiune Umiditate
    00:00 +5°C° 0 mm 1 m/s 773 mmHg 67%
    01:00 +5°C° 0 mm 1 m/s 773 mmHg 67%
    02:00 +4°C° 0 mm 1 m/s 773 mmHg 66%
    03:00 +4°C° 0 mm 1 m/s 773 mmHg 65%
    04:00 +4°C° 0 mm 1 m/s 773 mmHg 64%
    05:00 +4°C° 0 mm 1 m/s 773 mmHg 64%
    06:00 +4°C° 0 mm 1 m/s 773 mmHg 64%
    07:00 +3°C° 0 mm 1 m/s 773 mmHg 64%
    08:00 +5°C° 0 mm 1 m/s 772 mmHg 63%
    09:00 +5°C° 0 mm 2 m/s 772 mmHg 62%
    10:00 +6°C° 0 mm 2 m/s 772 mmHg 62%
    11:00 +7°C° 0.1 mm 2 m/s 771 mmHg 61%
    12:00 +7°C° 0.1 mm 3 m/s 771 mmHg 59%
    13:00 +8°C° 0.1 mm 3 m/s 770 mmHg 58%
    14:00 +7°C° 0.5 mm 3 m/s 769 mmHg 64%
    15:00 +7°C° 0.5 mm 3 m/s 768 mmHg 70%
    16:00 +6°C° 0.5 mm 2 m/s 767 mmHg 76%
    17:00 +5°C° 0.9 mm 3 m/s 766 mmHg 81%
    18:00 +5°C° 0.9 mm 3 m/s 765 mmHg 85%
    19:00 +4°C° 0.9 mm 3 m/s 765 mmHg 90%
    20:00 +5°C° 1.1 mm 3 m/s 763 mmHg 92%
    21:00 +6°C° 1.1 mm 2 m/s 762 mmHg 95%
    22:00 +7°C° 1.1 mm 2 m/s 761 mmHg 97%
    23:00 +8°C° 1.9 mm 2 m/s 759 mmHg 97%

    24 Februarie, Duminică

    Timp Temperatura Precipitaţii Vânt Presiune Umiditate
    00:00 +8°C° 1.9 mm 3 m/s 757 mmHg 97%
    01:00 +9°C° 1.9 mm 3 m/s 756 mmHg 97%
    02:00 +10°C° 2.4 mm 3 m/s 755 mmHg 97%
    03:00 +10°C° 2.4 mm 4 m/s 754 mmHg 96%
    04:00 +11°C° 2.4 mm 4 m/s 753 mmHg 96%
    05:00 +11°C° 2.2 mm 4 m/s 752 mmHg 96%
    06:00 +12°C° 2.2 mm 4 m/s 751 mmHg 96%
    07:00 +12°C° 2.2 mm 4 m/s 750 mmHg 96%
    08:00 +14°C° 0.3 mm 5 m/s 749 mmHg 93%
    09:00 +15°C° 0.3 mm 6 m/s 748 mmHg 91%
    10:00 +17°C° 0.3 mm 7 m/s 747 mmHg 88%
    11:00 +18°C° 0 mm 8 m/s 747 mmHg 70%
    12:00 +19°C° 0 mm 9 m/s 746 mmHg 52%
    13:00 +19°C° 0 mm 10 m/s 746 mmHg 35%
    14:00 +17°C° 0 mm 10 m/s 747 mmHg 38%
    15:00 +16°C° 0 mm 10 m/s 747 mmHg 40%
    16:00 +13°C° 0 mm 9 m/s 748 mmHg 43%
    17:00 +12°C° 0 mm 9 m/s 748 mmHg 45%
    18:00 +10°C° 0 mm 9 m/s 749 mmHg 46%
    19:00 +8°C° 0 mm 10 m/s 750 mmHg 48%
    20:00 +8°C° 0 mm 10 m/s 750 mmHg 48%
    21:00 +7°C° 0 mm 10 m/s 751 mmHg 48%
    22:00 +6°C° 0 mm 10 m/s 751 mmHg 48%
    23:00 +5°C° 0 mm 10 m/s 752 mmHg 47%

    25 Februarie, Luni

    Timp Temperatura Precipitaţii Vânt Presiune Umiditate
    00:00 +3°C° 0 mm 10 m/s 752 mmHg 46%
    01:00 +3°C° 0 mm 10 m/s 753 mmHg 45%
    02:00 +2°C° 0 mm 10 m/s 754 mmHg 45%
    03:00 +1°C° 0 mm 10 m/s 755 mmHg 45%
    04:00 +1°C° 0 mm 10 m/s 755 mmHg 45%
    05:00 0°C° 0 mm 9 m/s 757 mmHg 45%
    06:00 0°C° 0 mm 9 m/s 758 mmHg 45%
    07:00 -1°C° 0 mm 8 m/s 759 mmHg 45%
    08:00 0°C° 0 mm 9 m/s 760 mmHg 41%
    09:00 0°C° 0 mm 9 m/s 761 mmHg 38%
    10:00 +1°C° 0 mm 9 m/s 762 mmHg 34%
    11:00 +1°C° 0 mm 9 m/s 763 mmHg 32%
    12:00 +2°C° 0 mm 9 m/s 763 mmHg 30%
    13:00 +2°C° 0 mm 9 m/s 764 mmHg 28%
    14:00 +2°C° 0 mm 8 m/s 765 mmHg 28%
    15:00 +2°C° 0 mm 8 m/s 766 mmHg 28%
    16:00 +3°C° 0 mm 7 m/s 767 mmHg 28%
    17:00 +2°C° 0 mm 7 m/s 768 mmHg 31%
    18:00 +1°C° 0 mm 6 m/s 769 mmHg 33%
    19:00 -1°C° 0 mm 6 m/s 770 mmHg 36%
    20:00 -1°C° 0 mm 6 m/s 771 mmHg 38%
    21:00 -1°C° 0 mm 5 m/s 771 mmHg 39%
    22:00 -2°C° 0 mm 5 m/s 772 mmHg 40%
    23:00 -2°C° 0 mm 5 m/s 772 mmHg 41%
    Arată mai mult